Location: Courbehaye
(48.1591°N, 1.6091°E)
Time: 20:48:20
(UTC+00:00)

Daily predictions for brighter satellites

Satellite Brightness Start Highest point End
(mag) Time Altitude Azimuth Time Altitude Azimuth Time Altitude Azimuth
Cosmos 2239 Rocket 4.5 17:23:56 10° N 17:30:05 66° ENE 17:36:10 10° SSE
Okean-O 2.6 17:26:22 10° SSE 17:30:48 84° ENE 17:35:16 10° NNW
SMAP 3.6 17:26:35 10° S 17:31:12 67° WSW 17:35:52 10° NNW
Unknown 3.8 17:27:51 10° WSW 17:31:59 71° NNW 17:36:09 10° ENE
Unknown 3.8 17:28:38 10° WSW 17:32:47 71° NNW 17:36:56 10° ENE
Cosmos 1758 3.8 17:29:22 10° SSW 17:33:18 64° W 17:37:16 10° N
FengYun 1-2 T 4.5 17:27:55 10° SE 17:33:21 51° ENE 17:38:46 10° N
Unknown 3.9 17:30:25 10° WSW 17:34:33 68° NNW 17:38:42 10° ENE
Falcon 9 debris 4.0 17:31:24 10° WNW 17:34:39 37° N 17:37:55 10° ENE
BREEZE-M DEB (TANK) 3.5 17:31:05 10° WNW 17:35:08 78° NNE 17:44:48 10° ESE
CZ-4C R/B 4.0 17:28:21 10° NW 17:35:21 52° WSW 17:43:14 10° SSE
Meteor 1-16 Rocket 4.4 17:31:32 10° SSE 17:36:49 47° E 17:41:58 10° NNE
Lacrosse 5 2.6 17:32:05 10° NW 17:36:50 39° NNE 17:41:34 10° E
Unknown 3.9 17:33:45 10° WSW 17:37:52 66° NNW 17:42:01 10° ENE
COSMO-SKYMED 1 3.1 17:34:02 10° NNE 17:38:07 38° E 17:42:11 10° SSE
Unknown 3.9 17:34:03 10° WSW 17:38:11 67° NNW 17:42:19 10° ENE
Cosmos 1821 Rocket 4.0 17:32:05 10° N 17:38:14 83° E 17:44:24 10° S
Cosmos 1605 Rocket 4.4 17:32:45 10° N 17:38:31 38° ENE 17:44:10 10° SE
Cosmos 968 Rocket 4.1 17:33:41 10° NNW 17:38:56 65° WSW 17:44:07 10° S
Unknown 3.9 17:35:19 10° WSW 17:39:27 66° NNW 17:43:35 10° ENE
Cosmos 1908 4.3 17:38:06 10° SE 17:41:17 24° E 17:44:28 10° NE
Unknown 3.9 17:38:29 10° WSW 17:42:37 66° NNW 17:46:45 10° ENE
Cosmos 1825 Rocket 4.0 17:40:29 10° NNW 17:44:50 69° W 17:49:12 10° S
Cosmos 2278 Rocket 3.1 17:41:04 10° SSE 17:45:45 27° ESE 17:50:26 10° NE
Unknown 3.9 17:41:58 10° WSW 17:46:05 62° NNW 17:50:11 10° ENE
ATLAS 5 CENTAUR R/B 2.3 17:42:01 10° WSW 17:46:16 55° NW 17:51:06 10° NE
Cosmos 1934 Rocket 4.0 17:41:11 10° N 17:47:30 65° ENE 17:53:49 10° SSE
Unknown 4.0 17:43:39 10° W 17:47:45 62° NNW 17:51:48 10° ENE
Unknown 4.0 17:44:27 10° WNW 17:47:46 39° N 17:50:40 13° ENE
Cosmos 1953 Rocket 3.5 17:43:41 10° N 17:48:06 89° E 17:52:26 10° S
Unknown 4.0 17:45:18 10° W 17:49:25 60° NNW 17:53:23 11° ENE
Nadezhda 3 Rocket 4.1 17:43:39 10° S 17:49:57 87° W 17:56:21 10° N
Cosmos 1844 3.7 17:45:05 10° SSW 17:50:49 85° ESE 17:56:38 10° NNE
Unknown 4.0 17:46:58 10° W 17:51:05 60° NNW 17:54:59 11° ENE
NOAA 12 4.3 17:45:54 10° S 17:51:11 77° WSW 17:56:32 10° NNW
Lacrosse 5 rocket 3.1 17:48:50 10° WNW 17:52:08 30° SW 17:55:36 10° SSE
Cosmos 1470 4.4 17:50:23 10° SW 17:54:07 39° WNW 17:57:53 10° N
Cosmos 1535 Rocket 4.4 17:48:03 10° N 17:54:17 73° E 18:00:25 10° SSE
Unknown 4.0 17:50:21 10° W 17:54:27 58° NNW 17:58:12 12° ENE
Ariane Rocket 3.8 17:50:14 10° ESE 17:54:39 31° ENE 17:59:05 10° N
Unknown 4.1 17:52:04 10° W 17:56:10 57° NNW 17:59:51 13° ENE
Unknown 4.1 17:53:40 10° W 17:57:45 56° NNW 18:01:22 13° ENE
Abrixas rocket 3.7 17:57:01 10° SSW 17:59:24 21° SSE 18:00:46 16° ESE
Unknown 4.1 17:55:19 10° W 17:59:24 56° NNW 18:02:57 13° ENE
Cosmos 1939 Rocket 3.7 17:56:00 10° SE 17:59:29 30° ENE 18:03:02 10° N
Unknown 4.1 17:55:45 10° W 17:59:50 55° NNW 18:03:22 13° ENE
Cosmos 1992 Rocket 4.4 17:55:22 10° SSW 18:00:34 68° WNW 18:05:48 10° NNE
Unknown 3.7 17:58:24 10° WNW 18:00:55 40° SW 18:03:27 10° SE
Cosmos 1606 Rocket 3.9 17:56:45 10° SSW 18:01:07 68° WNW 18:05:28 10° N
Cosmos 1461 3.5 17:57:37 10° NNW 18:01:26 38° NE 18:04:27 15° ESE
COBE Rocket 4.0 17:56:36 10° NNE 18:01:49 86° ESE 18:06:54 10° SSW
Cosmos 1328 3.7 17:58:27 10° N 18:02:27 72° E 18:06:23 10° SSE
Unknown 4.1 17:58:28 10° W 18:02:33 56° NNW 18:05:58 14° ENE
Cosmos 1242 Rocket 2.5 17:59:33 10° NNW 18:03:15 89° E 18:06:56 10° S
Unknown 4.1 18:01:52 10° W 18:05:57 55° NNW 18:09:13 15° ENE
CSL-04 Rocket 3.7 18:01:01 10° SSE 18:06:32 73° ENE 18:12:01 10° NNW
Unknown 4.1 18:03:30 10° W 18:07:34 54° NNW 18:10:46 16° ENE
Cosmos 1726 1.9 18:04:57 10° S 18:08:35 72° E 18:12:13 10° NNE
Unknown 4.2 18:05:27 10° W 18:09:30 52° NNW 18:12:37 16° ENE
Unknown 2.8 18:07:12 10° WNW 18:10:19 86° SSW 18:12:18 21° ESE
Unknown 4.2 18:06:48 10° W 18:10:52 53° NNW 18:13:56 17° ENE
Unknown 4.2 18:08:30 10° W 18:12:34 52° NNW 18:15:34 17° ENE
Cosmos 1777 Rocket 3.9 18:08:12 10° NNW 18:13:27 74° ENE 18:18:38 10° SSE
HJ-1C 4.4 18:14:01 23° E 18:14:44 25° ENE 18:17:35 10° N
Unknown 4.2 18:11:54 10° W 18:15:56 51° NNW 18:18:48 18° ENE
NOAA 11 4.3 18:11:32 10° SE 18:16:49 54° ENE 18:22:07 10° N
Unknown 4.2 18:13:34 10° W 18:17:37 50° NNW 18:20:24 19° ENE
ATLAS CENTAUR R/B 4.1 18:18:08 10° N 18:18:57 10° N 18:19:45 10° NNE
Unknown 4.2 18:15:15 10° W 18:19:18 50° NNW 18:22:00 19° NE
Cosmos 1812 Rocket 4.2 18:16:38 10° SSE 18:20:34 32° E 18:24:33 10° NNE
ARGOS 4.5 18:19:44 19° ENE 18:20:48 20° ENE 18:24:36 10° NNE
Unknown 4.2 18:16:55 10° W 18:20:57 49° NNW 18:23:35 20° NE
Cosmos 839 Rocket 4.4 18:16:39 10° NW 18:22:49 71° WSW 18:29:48 10° SSE
Cosmos 1833 Rocket 2.7 18:17:49 10° NNW 18:23:25 64° ENE 18:28:56 10° SE
Unknown 4.2 18:20:30 10° WNW 18:24:02 39° N 18:25:43 24° ENE
Unknown 4.3 18:20:15 10° W 18:24:18 48° NNW 18:26:46 21° NE
CZ-4 R/B 2.0 18:20:13 10° S 18:24:21 62° W 18:28:33 10° NNW
Cosmos 1076 Rocket 4.1 18:20:49 10° N 18:24:51 35° ENE 18:27:00 22° ESE
Unknown 4.3 18:21:40 10° W 18:25:41 47° NNW 18:28:06 22° NE
BREEZE-M DEB (TANK) 3.7 18:15:25 10° SW 18:25:58 41° SSE 18:28:00 25° ESE
Unknown 4.3 18:22:14 10° W 18:26:15 46° N 18:28:37 22° NE
SKYMED 2 3.9 18:21:55 10° N 18:26:15 70° WNW 18:30:34 10° SSW
Unknown 4.3 18:23:53 10° W 18:27:54 46° N 18:30:12 22° NE
CZ-2D R/B 3.2 18:24:51 10° SSE 18:28:40 66° ENE 18:32:31 10° N
YAOGAN 1 2.8 18:26:03 10° S 18:30:22 70° WSW 18:34:43 10° NNW
Unknown 4.3 18:26:58 10° W 18:31:00 47° N 18:33:10 24° NE
Cosmos 489 Rocket 4.4 18:26:21 10° SSW 18:32:33 89° ESE 18:38:48 10° NNE
Unknown 4.3 18:30:19 10° W 18:34:19 46° N 18:36:21 25° NE
Cosmos 1153 Rocket 4.4 18:28:28 10° N 18:34:35 64° ENE 18:40:40 10° SSE
Unknown 4.4 18:31:21 10° W 18:35:18 44° N 18:37:13 26° NE
Unknown 4.3 18:32:01 10° W 18:36:02 46° N 18:37:59 26° NE
H-2A R/B 3.1 18:35:45 26° ENE 18:36:30 27° ENE 18:40:57 10° N
Unknown 4.4 18:33:40 10° W 18:37:40 45° N 18:39:33 27° NE
Unknown 4.4 18:33:55 10° WNW 18:37:47 42° N 18:39:29 27° NE
Meteor 2-10 4.3 18:33:52 10° SSW 18:38:55 68° WNW 18:43:57 10° N
Unknown 4.4 18:35:21 10° W 18:39:21 45° N 18:41:10 27° NE
Unknown 4.3 18:38:32 10° WNW 18:42:10 39° N 18:43:14 32° NE
BREEZE-M DEB (TANK) 2.9 18:38:54 10° SW 18:42:39 38° SSE 18:42:39 38° SSE
YAOGAN 6 4.3 18:40:19 10° SSW 18:43:42 35° W 18:47:04 10° NNW
Shenzhou-11 Module 3.5 18:41:50 10° WSW 18:44:07 24° S 18:44:07 24° S
Unknown 4.4 18:41:59 10° W 18:45:57 44° N 18:47:29 30° NE
ADEOS Rocket 4.1 18:39:37 10° NNE 18:46:22 32° E 18:52:42 10° SSE
Unknown 4.4 18:43:44 10° W 18:47:43 43° N 18:49:09 31° NE
Cosmos 2082 Rocket 2.1 18:42:02 10° NNW 18:47:45 69° ENE 18:51:05 25° SE
Unknown 4.4 18:45:22 10° W 18:49:21 43° N 18:50:43 32° NE
Unknown 4.4 18:47:02 10° W 18:51:01 43° N 18:52:18 32° NE
Unknown 4.2 18:48:50 10° WNW 18:52:32 40° N 18:53:16 36° NNE
Unknown 4.4 18:48:43 10° W 18:52:41 43° N 18:53:54 33° NE
FALCON 9 DEB 3.1 18:50:05 10° WNW 18:53:34 70° NNE 18:53:41 69° NE
Unknown 3.0 18:51:39 10° WNW 18:55:04 79° NNE 18:55:05 79° NNE
Gbstr 26 Del rocket 4.1 18:49:50 10° WNW 18:56:00 79° SSW 18:59:47 31° SE
Unknown 4.4 18:52:05 10° WNW 18:56:04 43° N 18:57:08 35° NNE
Cosmos 1898 Rocket 4.0 18:51:15 10° N 18:56:11 39° ENE 18:56:42 38° ENE
Starlink (trailer) 4.4 18:53:44 10° WNW 18:57:42 42° N 18:58:42 36° NNE
Unknown 4.4 18:55:25 10° WNW 18:59:22 42° N 19:00:17 36° NNE
Unknown 4.4 18:57:04 10° WNW 19:01:02 42° N 19:01:53 37° NNE
Cosmos 2058 2.9 18:57:33 10° N 19:01:38 59° ENE 19:01:38 59° ENE
SJ-6B 4.3 19:03:36 24° NNE 19:03:36 24° NNE 19:05:21 10° N
Unknown 3.3 18:59:05 10° WNW 19:02:22 66° N 19:02:22 66° N
Cosmos 2061 Rocket 4.2 18:56:40 10° N 19:02:42 47° ENE 19:04:09 40° ESE
ATLAS 3B R/B 4.0 18:58:56 10° SSE 19:01:17 19° SSE 19:01:17 19° SSE
Unknown 4.4 19:03:27 10° WNW 19:07:24 42° N 19:07:57 39° NNE
Unknown 4.4 19:03:46 10° WNW 19:07:44 42° N 19:08:16 39° NNE
Unknown 4.4 19:04:24 10° WNW 19:08:21 42° N 19:08:52 40° NNE
CZ-2C R/B 4.0 19:12:02 34° NE 19:12:02 34° NE 19:16:40 10° N
Falcon 9 debris 3.7 19:08:27 10° WNW 19:11:19 58° WNW 19:11:19 58° WNW
Unknown 4.4 19:08:00 10° WNW 19:11:57 41° N 19:12:18 40° NNE
Unknown 4.4 19:08:49 10° WNW 19:12:47 41° N 19:13:06 41° N
In-Cosmos 22 Rocket 4.0 19:09:09 10° N 19:14:32 68° ENE 19:15:44 52° SE
Unknown 4.4 19:10:37 10° WNW 19:14:34 41° N 19:14:48 41° N
CENTAUR R/B 4.2 19:10:05 10° S 19:11:09 15° SSE 19:11:09 15° SSE
Unknown 4.4 19:13:57 10° WNW 19:17:54 41° N 19:17:58 41° N
Unknown 4.4 19:14:14 10° WNW 19:18:11 41° N 19:18:16 41° N
SJ 16-02 2.8 19:15:01 10° N 19:17:24 26° NNE 19:17:24 26° NNE
Cosmos 1459 Rocket 3.9 19:13:07 10° N 19:19:20 80° E 19:23:03 27° SSE
Unknown 4.4 19:15:30 10° WNW 19:19:28 41° N 19:19:29 41° N
Lacrosse 5 1.8 19:15:07 10° NW 19:20:11 76° SW 19:20:55 63° SSE
Unknown 4.5 19:18:41 10° WNW 19:22:31 41° N 19:22:31 41° N
Unknown 4.4 19:21:42 10° WNW 19:24:07 41° WNW 19:24:07 41° WNW
MOS 1 4.4 19:25:42 22° S 19:29:26 71° WSW 19:35:06 10° NNW
Cosmos 2278 Rocket 2.8 19:23:55 10° SW 19:29:29 55° WNW 19:35:06 10° NNE
Resurs 01 Rocket 3.7 19:32:44 17° NNE 19:32:44 17° NNE 19:33:56 10° N
USA 238 DEB 3.5 19:23:40 10° SW 19:30:23 85° SE 19:33:52 32° NE
USA 238 3.5 19:23:47 10° SW 19:30:29 85° SE 19:33:55 33° NE
ATLAS 5 CENTAUR R/B 4.1 19:28:46 10° WNW 19:32:05 19° NNW 19:34:48 13° NNE
Ariane Rocket 4.2 19:28:39 10° S 19:33:28 42° W 19:38:18 10° NNW
Okean 3 Rocket 4.3 19:30:55 10° N 19:34:09 46° N 19:34:09 46° N
Cosmos 1461 4.4 19:36:51 10° WNW 19:40:26 30° WSW 19:40:53 29° SW
Cosmos 1802 Rocket 4.0 19:37:12 10° N 19:43:41 83° W 19:45:54 44° S
Cosmos 2173 Rocket 4.2 19:37:39 10° NNW 19:43:54 70° W 19:47:19 28° S
Cosmos 1864 Rocket 4.4 19:41:51 10° N 19:47:35 71° NE 19:47:35 71° NE
Cosmos 2084 Rocket 4.5 19:44:16 10° NW 19:47:36 46° WNW 19:47:36 46° WNW
Cosmos 1937 Rocket 4.1 19:47:36 10° NNW 19:51:20 48° N 19:51:20 48° N
NOSS 3-2 (A) 3.4 19:49:35 10° SW 19:55:27 81° NW 19:56:02 73° NNE
Cosmos 990 Rocket 4.4 19:53:01 10° NNW 19:57:16 58° NW 19:57:16 58° NW
SPOT 3 Rocket 3.9 19:58:35 62° W 19:58:35 62° W 20:03:30 10° NNW
ATLAS CENTAUR R/B 4.0 19:56:24 10° NNW 19:57:49 15° N 19:57:49 15° N
ARGOS 3.4 20:01:15 64° NW 20:01:15 64° NW 20:05:56 10° NNW
Cosmos 1725 Rocket 4.0 19:57:10 10° N 20:03:03 79° NNW 20:03:03 79° NNW
H-2A R/B 2.9 20:16:22 49° WNW 20:16:22 49° WNW 20:20:55 10° NNW
Cosmos 2082 Rocket 4.2 20:27:05 10° NW 20:31:16 21° W 20:32:59 19° SW
ADEOS Rocket 3.8 20:24:39 10° N 20:32:18 64° WNW 20:39:26 10° SSW
SJ 16-02 4.4 20:53:55 10° NW 20:54:24 12° NW 20:54:24 12° NW
